Location: Asheville, NC
(35.6000°N, 82.5500°W)
Time: 18:17:23
(UTC-04:00)

Hubble Space Telescope - Pass Details

Date: 10 January 2018
Orbit: 537 x 541 km, 28.5° (Epoch: 19 July)

Event Time Altitude Azimuth Distance (km) Brightness Sun altitude
Exits shadow 05:48:07 24° 196° (SSW) 1,137 2.3 -22.3°
Maximum altitude 05:48:20 24° 191° (S) 1,133 2.4 -22.3°
Drops below altitude 10° 05:51:41 10° 137° (SE) 1,781 4.2 -21.6°
Sets 05:54:15 0° 123° (ESE) 2,670 5.6 -21.1°
